Time,TemperatureF,DewpointF,PressureIn,WindDirection,WindDirectionDegrees,WindSpeedMPH,WindSpeedGustMPH,Humidity,HourlyPrecipIn,Conditions,Clouds,dailyrainin,SoftwareType,DateUTC
2013-03-31 07:27:00,66.7,63.1,29.21,SSE,167,8.1,8.1,88,0.00,,---,0.00,VWS V13.01,2013-03-31 12:27:00,
2013-03-31 07:32:00,66.7,63.1,29.21,SSE,150,8.3,17.4,88,0.00,,---,0.00,VWS V13.01,2013-03-31 12:32:00,
2013-03-31 07:37:00,66.9,62.9,29.21,South,182,6.3,11.0,87,0.00,,---,0.00,VWS V13.01,2013-03-31 12:37:00,
2013-03-31 07:42:00,66.9,62.9,29.23,SSW,213,8.1,8.1,87,0.00,,---,0.00,VWS V13.01,2013-03-31 12:42:00,
2013-03-31 07:47:00,66.9,62.9,29.23,South,177,8.1,10.1,87,0.00,,---,0.00,VWS V13.01,2013-03-31 12:47:00,
2013-03-31 07:52:00,67.1,63.1,29.23,SSW,192,8.3,10.5,87,0.00,,---,0.00,VWS V13.01,2013-03-31 12:52:00,
2013-03-31 07:57:00,67.1,63.1,29.23,WSW,247,5.4,8.3,87,0.00,,---,0.00,VWS V13.01,2013-03-31 12:57:00,
2013-03-31 08:02:00,67.1,63.1,29.23,SSE,165,4.0,5.8,87,0.00,,---,0.00,VWS V13.01,2013-03-31 13:02:00,
2013-03-31 08:07:00,67.1,63.1,29.23,SSW,211,6.3,6.3,87,0.00,,---,0.00,VWS V13.01,2013-03-31 13:07:00,
2013-03-31 08:12:00,67.1,63.1,29.23,West,259,6.3,6.3,87,0.00,,---,0.00,VWS V13.01,2013-03-31 13:12:00,
2013-03-31 08:18:00,66.6,60.6,29.29,West,275,11.0,11.0,81,0.00,,---,0.00,VWS V13.01,2013-03-31 13:18:00,
2013-03-31 08:23:00,65.1,59.5,29.35,North,1,4.0,11.4,82,0.08,,---,0.08,VWS V13.01,2013-03-31 13:23:00,
2013-03-31 08:28:00,63.7,58.8,29.35,NW,310,5.4,8.3,84,0.08,,---,0.08,VWS V13.01,2013-03-31 13:28:00,
2013-03-31 08:33:00,62.8,58.5,29.35,WNW,300,3.6,12.8,86,0.08,,---,0.08,VWS V13.01,2013-03-31 13:33:00,
2013-03-31 08:38:00,62.2,58.7,29.35,North,353,8.7,10.1,88,0.12,,---,0.12,VWS V13.01,2013-03-31 13:38:00,
2013-03-31 08:43:00,61.9,58.6,29.35,NNW,330,4.0,6.3,89,0.12,,---,0.12,VWS V13.01,2013-03-31 13:43:00,
2013-03-31 08:48:00,61.9,58.9,29.35,North,3,3.1,8.3,90,0.12,,---,0.12,VWS V13.01,2013-03-31 13:48:00,
2013-03-31 08:53:00,61.5,58.2,29.35,North,350,3.1,8.1,89,0.12,,---,0.12,VWS V13.01,2013-03-31 13:53:00,
2013-03-31 08:59:00,61.2,57.9,29.35,NNE,18,7.6,7.6,89,0.12,,---,0.12,VWS V13.01,2013-03-31 13:59:00,
2013-03-31 09:04:00,61.0,57.7,29.35,North,10,7.2,7.2,89,0.12,,---,0.12,VWS V13.01,2013-03-31 14:04:00,
2013-03-31 09:09:00,60.8,57.5,29.35,NW,321,9.6,9.6,89,0.12,,---,0.12,VWS V13.01,2013-03-31 14:09:00,
2013-03-31 09:14:00,61.0,57.7,29.35,North,353,5.4,6.7,89,0.12,,---,0.12,VWS V13.01,2013-03-31 14:14:00,
2013-03-31 09:18:00,61.3,58.1,29.35,NNE,32,3.6,6.3,89,0.12,,---,0.12,VWS V13.01,2013-03-31 14:18:00,
2013-03-31 09:23:00,61.7,58.4,29.35,North,353,2.7,8.7,89,0.04,,---,0.12,VWS V13.01,2013-03-31 14:23:00,
2013-03-31 09:28:00,62.2,58.7,29.35,NNE,22,7.6,10.1,88,0.04,,---,0.12,VWS V13.01,2013-03-31 14:28:00,
2013-03-31 09:33:00,62.6,57.7,29.35,ENE,64,6.3,6.3,84,0.04,,---,0.12,VWS V13.01,2013-03-31 14:33:00,
2013-03-31 09:38:00,62.8,57.2,29.35,North,357,6.3,8.1,82,0.00,,---,0.12,VWS V13.01,2013-03-31 14:38:00,
2013-03-31 09:43:00,63.0,57.0,29.35,North,357,0.0,0.0,81,0.00,,---,0.12,VWS V13.01,2013-03-31 14:43:00,
2013-03-31 09:49:00,63.5,57.2,29.35,NE,44,2.2,4.9,80,0.00,,---,0.12,VWS V13.01,2013-03-31 14:49:00,
2013-03-31 09:54:00,63.7,57.4,29.35,NNE,32,8.3,8.3,80,0.00,,---,0.12,VWS V13.01,2013-03-31 14:54:00,
2013-03-31 09:58:00,63.9,56.9,29.35,North,0,4.0,7.6,78,0.00,,---,0.12,VWS V13.01,2013-03-31 14:58:00,
2013-03-31 10:03:00,64.0,56.7,29.35,NNE,12,4.9,8.7,77,0.00,,---,0.12,VWS V13.01,2013-03-31 15:03:00,
2013-03-31 10:08:00,64.4,56.7,29.35,NE,40,4.0,7.6,76,0.00,,---,0.12,VWS V13.01,2013-03-31 15:08:00,
2013-03-31 10:13:00,64.6,56.5,29.35,North,2,3.6,9.6,75,0.00,,---,0.12,VWS V13.01,2013-03-31 15:13:00,
2013-03-31 10:18:00,64.8,56.7,29.35,ENE,58,2.7,5.8,75,0.00,,---,0.12,VWS V13.01,2013-03-31 15:18:00,
2013-03-31 10:23:00,64.8,56.3,29.38,NNW,341,2.2,4.0,74,0.00,,---,0.12,VWS V13.01,2013-03-31 15:23:00,
2013-03-31 10:29:00,65.1,55.9,29.38,North,10,5.4,6.3,72,0.00,,---,0.12,VWS V13.01,2013-03-31 15:29:00,
2013-03-31 10:34:00,65.3,56.0,29.38,NNE,33,4.5,8.1,72,0.00,,---,0.12,VWS V13.01,2013-03-31 15:34:00,
2013-03-31 10:39:00,64.9,55.7,29.38,NE,56,3.6,8.1,72,0.00,,---,0.12,VWS V13.01,2013-03-31 15:39:00,
2013-03-31 10:44:00,64.9,55.7,29.38,North,357,4.0,4.0,72,0.00,,---,0.12,VWS V13.01,2013-03-31 15:44:00,
2013-03-31 10:49:00,64.6,55.4,29.38,NE,50,0.0,4.9,72,0.00,,---,0.12,VWS V13.01,2013-03-31 15:49:00,
2013-03-31 10:54:00,64.6,55.4,29.38,North,7,0.0,2.2,72,0.00,,---,0.12,VWS V13.01,2013-03-31 15:54:00,
2013-03-31 10:59:00,64.6,55.7,29.38,NNE,28,0.0,4.0,73,0.00,,---,0.12,VWS V13.01,2013-03-31 15:59:00,
2013-03-31 11:04:00,64.4,55.2,29.38,NE,42,2.2,4.0,72,0.00,,---,0.12,VWS V13.01,2013-03-31 16:04:00,
2013-03-31 11:09:00,64.2,55.4,29.38,North,3,4.0,6.3,73,0.00,,---,0.12,VWS V13.01,2013-03-31 16:09:00,
2013-03-31 11:14:00,64.2,55.4,29.38,NNE,31,8.3,8.3,73,0.00,,---,0.12,VWS V13.01,2013-03-31 16:14:00,
2013-03-31 11:19:00,64.0,55.2,29.38,North,4,2.2,5.4,73,0.00,,---,0.12,VWS V13.01,2013-03-31 16:19:00,
2013-03-31 11:24:00,64.2,55.4,29.38,NNE,23,3.6,4.0,73,0.00,,---,0.12,VWS V13.01,2013-03-31 16:24:00,
2013-03-31 11:29:00,64.6,55.7,29.38,NE,52,3.1,3.1,73,0.00,,---,0.12,VWS V13.01,2013-03-31 16:29:00,
2013-03-31 11:34:00,64.8,55.5,29.38,NE,41,0.0,0.0,72,0.00,,---,0.12,VWS V13.01,2013-03-31 16:34:00,
2013-03-31 11:39:00,65.3,56.0,29.38,ENE,66,2.2,3.6,72,0.00,,---,0.12,VWS V13.01,2013-03-31 16:39:00,
2013-03-31 11:44:00,66.0,56.4,29.38,ENE,77,0.0,4.0,71,0.00,,---,0.12,VWS V13.01,2013-03-31 16:44:00,
2013-03-31 11:49:00,67.1,57.8,29.38,SSE,163,0.0,0.0,72,0.00,,---,0.12,VWS V13.01,2013-03-31 16:49:00,
2013-03-31 11:54:00,67.5,57.0,29.38,SSE,163,0.0,0.0,69,0.00,,---,0.12,VWS V13.01,2013-03-31 16:54:00,
2013-03-31 11:59:00,68.0,55.8,29.38,North,7,0.0,2.7,65,0.00,,---,0.12,VWS V13.01,2013-03-31 16:59:00,
2013-03-31 12:04:00,69.1,58.1,29.38,NW,326,0.0,0.0,68,0.00,,---,0.12,VWS V13.01,2013-03-31 17:04:00,
2013-03-31 12:09:00,69.4,56.8,29.38,WNW,298,3.6,3.6,64,0.00,,---,0.12,VWS V13.01,2013-03-31 17:09:00,
2013-03-31 12:14:00,69.8,55.3,29.38,ENE,57,3.1,3.1,60,0.00,,---,0.12,VWS V13.01,2013-03-31 17:14:00,
2013-03-31 12:19:00,70.0,55.9,29.38,NNE,15,4.0,5.4,61,0.00,,---,0.12,VWS V13.01,2013-03-31 17:19:00,
2013-03-31 12:24:00,70.0,55.9,29.38,North,353,5.4,7.6,61,0.00,,---,0.12,VWS V13.01,2013-03-31 17:24:00,
2013-03-31 12:29:00,70.0,54.5,29.38,NNW,345,5.4,5.4,58,0.00,,---,0.12,VWS V13.01,2013-03-31 17:29:00,
2013-03-31 12:34:00,69.8,54.4,29.38,NNW,329,2.7,3.6,58,0.00,,---,0.12,VWS V13.01,2013-03-31 17:34:00,
2013-03-31 12:39:00,69.8,54.4,29.38,NNE,19,0.0,3.1,58,0.00,,---,0.12,VWS V13.01,2013-03-31 17:39:00,
2013-03-31 12:44:00,69.6,54.2,29.38,NE,56,5.8,6.3,58,0.00,,---,0.12,VWS V13.01,2013-03-31 17:44:00,
2013-03-31 12:49:00,69.3,54.3,29.38,NNE,17,6.3,8.1,59,0.00,,---,0.12,VWS V13.01,2013-03-31 17:49:00,
2013-03-31 12:54:00,69.1,55.1,29.38,North,349,2.7,2.7,61,0.00,,---,0.12,VWS V13.01,2013-03-31 17:54:00,
2013-03-31 12:59:00,69.4,54.5,29.38,NNE,27,5.4,6.3,59,0.00,,---,0.12,VWS V13.01,2013-03-31 17:59:00,
2013-03-31 13:04:00,69.6,54.7,29.38,NE,36,4.9,7.6,59,0.00,,---,0.12,VWS V13.01,2013-03-31 18:04:00,
2013-03-31 13:09:00,69.6,52.8,29.38,NNE,24,6.3,6.3,55,0.00,,---,0.12,VWS V13.01,2013-03-31 18:09:00,
2013-03-31 13:14:00,69.8,53.4,29.38,ENE,62,6.3,8.3,56,0.00,,---,0.12,VWS V13.01,2013-03-31 18:14:00,
2013-03-31 13:19:00,70.0,53.6,29.38,NE,46,5.8,5.8,56,0.00,,---,0.12,VWS V13.01,2013-03-31 18:19:00,
2013-03-31 13:24:00,70.3,54.9,29.38,NNW,345,5.8,5.8,58,0.00,,---,0.12,VWS V13.01,2013-03-31 18:24:00,
2013-03-31 13:29:00,70.7,53.8,29.38,ENE,77,5.8,5.8,55,0.00,,---,0.12,VWS V13.01,2013-03-31 18:29:00,
2013-03-31 13:34:00,71.2,54.3,29.38,NW,310,2.7,3.6,55,0.00,,---,0.12,VWS V13.01,2013-03-31 18:34:00,
2013-03-31 13:39:00,71.6,53.6,29.38,NE,46,4.0,5.4,53,0.00,,---,0.12,VWS V13.01,2013-03-31 18:39:00,
2013-03-31 13:44:00,71.6,53.1,29.38,North,353,4.0,5.8,52,0.00,,---,0.12,VWS V13.01,2013-03-31 18:44:00,
2013-03-31 13:49:00,72.0,53.9,29.38,NNW,338,3.6,7.6,53,0.00,,---,0.12,VWS V13.01,2013-03-31 18:49:00,
2013-03-31 13:54:00,72.1,53.6,29.38,North,11,0.0,5.8,52,0.00,,---,0.12,VWS V13.01,2013-03-31 18:54:00,
2013-03-31 13:59:00,72.1,51.9,29.38,NNE,23,5.8,8.3,49,0.00,,---,0.12,VWS V13.01,2013-03-31 18:59:00,
2013-03-31 14:04:00,72.3,54.2,29.38,ENE,65,4.0,5.8,53,0.00,,---,0.12,VWS V13.01,2013-03-31 19:04:00,
2013-03-31 14:09:00,72.7,54.6,29.38,NNW,342,8.1,8.1,53,0.00,,---,0.12,VWS V13.01,2013-03-31 19:09:00,
2013-03-31 14:14:00,72.7,53.5,29.38,NNE,29,5.4,5.8,51,0.00,,---,0.12,VWS V13.01,2013-03-31 19:14:00,
2013-03-31 14:19:00,72.7,53.0,29.38,NNE,30,4.0,4.9,50,0.00,,---,0.12,VWS V13.01,2013-03-31 19:19:00,
2013-03-31 14:23:00,72.5,53.4,29.38,NE,37,4.9,8.3,51,0.00,,---,0.12,VWS V13.01,2013-03-31 19:23:00,
2013-03-31 14:29:00,72.9,54.8,29.38,NNE,16,5.8,5.8,53,0.00,,---,0.12,VWS V13.01,2013-03-31 19:29:00,
2013-03-31 14:34:00,73.2,52.9,29.38,North,0,8.1,8.3,49,0.00,,---,0.12,VWS V13.01,2013-03-31 19:34:00,
2013-03-31 14:39:00,73.2,52.4,29.38,WNW,300,4.0,5.4,48,0.00,,---,0.12,VWS V13.01,2013-03-31 19:39:00,
2013-03-31 14:44:00,73.2,53.5,29.38,NNW,330,2.7,8.1,50,0.00,,---,0.12,VWS V13.01,2013-03-31 19:44:00,
2013-03-31 14:49:00,73.2,53.5,29.38,WNW,283,3.6,6.3,50,0.00,,---,0.12,VWS V13.01,2013-03-31 19:49:00,
2013-03-31 14:54:00,73.4,53.1,29.35,NW,304,8.3,8.7,49,0.00,,---,0.12,VWS V13.01,2013-03-31 19:54:00,
2013-03-31 14:59:00,73.4,52.5,29.35,NNW,334,4.0,4.0,48,0.00,,---,0.12,VWS V13.01,2013-03-31 19:59:00,
2013-03-31 15:04:00,73.4,53.1,29.35,WNW,291,2.7,5.8,49,0.00,,---,0.12,VWS V13.01,2013-03-31 20:04:00,
2013-03-31 15:09:00,73.4,52.5,29.35,NNE,31,8.3,10.1,48,0.00,,---,0.12,VWS V13.01,2013-03-31 20:09:00,
2013-03-31 15:14:00,73.2,51.2,29.35,WNW,303,7.6,8.3,46,0.00,,---,0.12,VWS V13.01,2013-03-31 20:14:00,
2013-03-31 15:19:00,73.4,50.8,29.35,NNE,21,4.9,4.9,45,0.00,,---,0.12,VWS V13.01,2013-03-31 20:19:00,
2013-03-31 15:24:00,73.4,51.4,29.35,NNE,26,4.0,6.3,46,0.00,,---,0.12,VWS V13.01,2013-03-31 20:24:00,
2013-03-31 15:29:00,73.4,50.8,29.35,North,3,6.3,8.7,45,0.00,,---,0.12,VWS V13.01,2013-03-31 20:29:00,
2013-03-31 15:34:00,73.2,51.8,29.35,NW,304,0.0,6.3,47,0.00,,---,0.12,VWS V13.01,2013-03-31 20:34:00,
2013-03-31 15:39:00,73.4,53.7,29.35,NW,311,5.4,8.1,50,0.00,,---,0.12,VWS V13.01,2013-03-31 20:39:00,
2013-03-31 15:44:00,73.8,51.7,29.35,WNW,300,4.0,5.8,46,0.00,,---,0.12,VWS V13.01,2013-03-31 20:44:00,
2013-03-31 15:49:00,73.9,52.5,29.35,NNE,32,5.8,5.8,47,0.00,,---,0.12,VWS V13.01,2013-03-31 20:49:00,
2013-03-31 15:54:00,74.1,50.2,29.35,North,357,7.6,7.6,43,0.00,,---,0.12,VWS V13.01,2013-03-31 20:54:00,
2013-03-31 15:59:00,73.9,50.1,29.35,NE,44,5.8,5.8,43,0.00,,---,0.12,VWS V13.01,2013-03-31 20:59:00,
2013-03-31 16:04:00,73.8,49.3,29.35,North,353,5.8,5.8,42,0.00,,---,0.12,VWS V13.01,2013-03-31 21:04:00,
2013-03-31 16:09:00,73.8,49.3,29.35,North,10,7.2,7.2,42,0.00,,---,0.12,VWS V13.01,2013-03-31 21:09:00,
2013-03-31 16:14:00,73.6,48.5,29.35,NNW,332,2.7,4.9,41,0.00,,---,0.12,VWS V13.01,2013-03-31 21:14:00,
2013-03-31 16:19:00,73.8,49.3,29.35,ENE,73,3.6,3.6,42,0.00,,---,0.12,VWS V13.01,2013-03-31 21:19:00,
2013-03-31 16:24:00,73.9,48.1,29.35,NNE,23,3.1,5.4,40,0.00,,---,0.12,VWS V13.01,2013-03-31 21:24:00,
2013-03-31 16:29:00,73.9,47.5,29.35,West,277,3.6,4.0,39,0.00,,---,0.12,VWS V13.01,2013-03-31 21:29:00,
2013-03-31 16:34:00,73.8,48.6,29.35,NNW,343,3.1,4.9,41,0.00,,---,0.12,VWS V13.01,2013-03-31 21:34:00,
2013-03-31 16:39:00,73.8,46.6,29.35,NW,321,8.7,8.7,38,0.00,,---,0.12,VWS V13.01,2013-03-31 21:39:00,
2013-03-31 16:44:00,73.8,47.3,29.35,North,357,2.7,6.3,39,0.00,,---,0.12,VWS V13.01,2013-03-31 21:44:00,
2013-03-31 16:49:00,73.9,46.8,29.35,NW,320,4.0,4.0,38,0.00,,---,0.12,VWS V13.01,2013-03-31 21:49:00,
2013-03-31 16:54:00,73.9,46.8,29.32,NNE,16,0.0,4.0,38,0.00,,---,0.12,VWS V13.01,2013-03-31 21:54:00,
2013-03-31 16:59:00,74.3,47.1,29.32,NNW,329,7.6,7.6,38,0.00,,---,0.12,VWS V13.01,2013-03-31 21:59:00,
2013-03-31 17:04:00,74.1,46.9,29.32,North,357,5.4,5.4,38,0.00,,---,0.12,VWS V13.01,2013-03-31 22:04:00,
2013-03-31 17:09:00,73.9,48.8,29.32,North,357,8.1,8.1,41,0.00,,---,0.12,VWS V13.01,2013-03-31 22:09:00,
2013-03-31 17:14:00,73.9,49.4,29.32,NE,36,3.6,3.6,42,0.00,,---,0.12,VWS V13.01,2013-03-31 22:14:00,
2013-03-31 17:19:00,73.9,49.4,29.32,North,3,5.4,5.4,42,0.00,,---,0.12,VWS V13.01,2013-03-31 22:19:00,
2013-03-31 17:24:00,73.9,49.4,29.32,NNE,15,8.1,8.1,42,0.00,,---,0.12,VWS V13.01,2013-03-31 22:24:00,
2013-03-31 17:29:00,73.9,49.4,29.32,NNW,333,0.0,3.1,42,0.00,,---,0.12,VWS V13.01,2013-03-31 22:29:00,
2013-03-31 17:34:00,73.9,49.4,29.32,NNE,15,2.2,4.0,42,0.00,,---,0.12,VWS V13.01,2013-03-31 22:34:00,
2013-03-31 17:39:00,73.9,50.1,29.32,North,353,4.9,4.9,43,0.00,,---,0.12,VWS V13.01,2013-03-31 22:39:00,
2013-03-31 17:44:00,73.8,49.9,29.32,NW,325,3.6,3.6,43,0.00,,---,0.12,VWS V13.01,2013-03-31 22:44:00,
2013-03-31 17:49:00,73.8,49.9,29.32,NNE,15,3.6,6.3,43,0.00,,---,0.12,VWS V13.01,2013-03-31 22:49:00,
2013-03-31 17:54:00,73.6,49.1,29.32,NNE,16,5.8,5.8,42,0.00,,---,0.12,VWS V13.01,2013-03-31 22:54:00,
2013-03-31 17:59:00,73.4,49.6,29.32,North,353,8.1,8.3,43,0.00,,---,0.12,VWS V13.01,2013-03-31 22:59:00,
2013-03-31 18:04:00,73.4,48.9,29.32,North,10,5.4,5.4,42,0.00,,---,0.12,VWS V13.01,2013-03-31 23:04:00,
2013-03-31 18:09:00,73.2,49.4,29.32,NNE,24,5.8,9.6,43,0.00,,---,0.12,VWS V13.01,2013-03-31 23:09:00,
2013-03-31 18:14:00,73.2,49.4,29.32,North,357,3.1,5.4,43,0.00,,---,0.12,VWS V13.01,2013-03-31 23:14:00,
2013-03-31 18:19:00,73.0,49.2,29.32,NNW,329,2.7,3.6,43,0.00,,---,0.12,VWS V13.01,2013-03-31 23:19:00,
2013-03-31 18:24:00,73.0,49.9,29.32,NNW,348,3.6,5.4,44,0.00,,---,0.12,VWS V13.01,2013-03-31 23:24:00,
2013-03-31 18:29:00,72.9,49.1,29.32,NNE,15,2.7,4.0,43,0.00,,---,0.12,VWS V13.01,2013-03-31 23:29:00,
2013-03-31 18:34:00,72.9,49.1,29.32,North,357,8.1,8.1,43,0.00,,---,0.12,VWS V13.01,2013-03-31 23:34:00,
2013-03-31 18:39:00,72.7,48.9,29.32,NW,319,3.6,5.4,43,0.00,,---,0.12,VWS V13.01,2013-03-31 23:39:00,
2013-03-31 18:44:00,72.5,48.8,29.32,NW,321,5.4,6.3,43,0.00,,---,0.12,VWS V13.01,2013-03-31 23:44:00,
2013-03-31 18:49:00,72.3,49.2,29.32,North,350,8.1,8.1,44,0.00,,---,0.12,VWS V13.01,2013-03-31 23:49:00,
2013-03-31 18:54:00,72.1,48.4,29.32,NNE,30,4.9,5.8,43,0.00,,---,0.12,VWS V13.01,2013-03-31 23:54:00,
2013-03-31 18:59:00,72.0,48.9,29.32,NW,318,3.6,3.6,44,0.00,,---,0.12,VWS V13.01,2013-03-31 23:59:00,
2013-03-31 19:04:00,71.8,48.7,29.32,NW,322,4.5,4.5,44,0.00,,---,0.12,VWS V13.01,2013-04-01 00:04:00,
2013-03-31 19:09:00,71.6,48.6,29.32,NNW,336,5.4,5.4,44,0.00,,---,0.12,VWS V13.01,2013-04-01 00:09:00,
2013-03-31 19:14:00,71.4,49.0,29.32,NNE,17,4.9,4.9,45,0.00,,---,0.12,VWS V13.01,2013-04-01 00:14:00,
2013-03-31 19:19:00,71.2,48.2,29.32,NNW,339,3.1,3.6,44,0.00,,---,0.12,VWS V13.01,2013-04-01 00:19:00,
2013-03-31 19:24:00,71.1,48.7,29.32,NNW,332,3.6,3.6,45,0.00,,---,0.12,VWS V13.01,2013-04-01 00:24:00,
2013-03-31 19:29:00,71.1,48.1,29.32,NNW,341,0.0,0.0,44,0.00,,---,0.12,VWS V13.01,2013-04-01 00:29:00,
2013-03-31 19:34:00,70.9,48.5,29.32,NW,326,7.2,7.2,45,0.00,,---,0.12,VWS V13.01,2013-04-01 00:34:00,
2013-03-31 19:39:00,70.7,48.3,29.32,NNW,341,5.4,5.4,45,0.00,,---,0.12,VWS V13.01,2013-04-01 00:39:00,
2013-03-31 19:44:00,70.3,48.0,29.32,NW,320,4.0,4.0,45,0.00,,---,0.12,VWS V13.01,2013-04-01 00:44:00,
2013-03-31 19:49:00,70.2,47.8,29.32,NNE,16,3.6,3.6,45,0.00,,---,0.12,VWS V13.01,2013-04-01 00:49:00,
2013-03-31 19:54:00,70.0,48.3,29.35,NNE,16,3.6,3.6,46,0.00,,---,0.12,VWS V13.01,2013-04-01 00:54:00,
2013-03-31 19:59:00,69.8,48.1,29.35,NNE,16,3.6,3.6,46,0.00,,---,0.12,VWS V13.01,2013-04-01 00:59:00,
2013-03-31 20:04:00,69.6,48.0,29.35,NNE,16,3.6,3.6,46,0.00,,---,0.12,VWS V13.01,2013-04-01 01:04:00,
2013-03-31 20:09:00,69.4,47.8,29.35,NNE,16,3.6,3.6,46,0.00,,---,0.12,VWS V13.01,2013-04-01 01:09:00,
2013-03-31 20:14:00,69.3,47.6,29.35,NNW,341,2.7,2.7,46,0.00,,---,0.12,VWS V13.01,2013-04-01 01:14:00,
2013-03-31 20:19:00,69.3,48.2,29.35,NNW,341,0.0,0.0,47,0.00,,---,0.12,VWS V13.01,2013-04-01 01:19:00,
2013-03-31 20:24:00,69.1,48.0,29.35,NNW,341,0.0,0.0,47,0.00,,---,0.12,VWS V13.01,2013-04-01 01:24:00,
2013-03-31 20:29:00,69.3,48.2,29.35,NNW,341,4.0,4.0,47,0.00,,---,0.12,VWS V13.01,2013-04-01 01:29:00,
2013-03-31 20:34:00,69.1,48.0,29.35,NW,326,0.0,0.0,47,0.00,,---,0.12,VWS V13.01,2013-04-01 01:34:00,
2013-03-31 20:39:00,68.9,47.3,29.35,NW,314,2.7,2.7,46,0.00,,---,0.12,VWS V13.01,2013-04-01 01:39:00,
2013-03-31 20:44:00,68.5,47.5,29.35,NW,314,3.6,3.6,47,0.00,,---,0.12,VWS V13.01,2013-04-01 01:44:00,
2013-03-31 20:49:00,68.4,47.4,29.35,NW,315,5.4,5.4,47,0.00,,---,0.12,VWS V13.01,2013-04-01 01:49:00,
2013-03-31 20:54:00,68.4,47.4,29.35,NW,315,5.4,5.4,47,0.00,,---,0.12,VWS V13.01,2013-04-01 01:54:00,
2013-03-31 20:59:00,68.5,47.5,29.35,NW,315,5.4,5.4,47,0.00,,---,0.12,VWS V13.01,2013-04-01 01:59:00,
2013-03-31 21:04:00,68.4,46.8,29.35,NW,315,5.4,5.4,46,0.00,,---,0.12,VWS V13.01,2013-04-01 02:04:00,
2013-03-31 21:09:00,68.0,46.5,29.35,NNW,327,2.7,2.7,46,0.00,,---,0.12,VWS V13.01,2013-04-01 02:09:00,
2013-03-31 21:14:00,67.8,46.3,29.35,NNW,327,3.6,3.6,46,0.00,,---,0.12,VWS V13.01,2013-04-01 02:14:00,
2013-03-31 21:19:00,67.6,46.1,29.35,NW,326,2.7,2.7,46,0.00,,---,0.12,VWS V13.01,2013-04-01 02:19:00,
2013-03-31 21:24:00,67.5,46.0,29.35,NNW,327,0.0,0.0,46,0.00,,---,0.12,VWS V13.01,2013-04-01 02:24:00,
2013-03-31 21:29:00,67.3,45.8,29.35,NNW,327,0.0,3.6,46,0.00,,---,0.12,VWS V13.01,2013-04-01 02:29:00,
2013-03-31 21:34:00,67.1,45.7,29.35,NNW,333,0.0,0.0,46,0.00,,---,0.12,VWS V13.01,2013-04-01 02:34:00,
2013-03-31 21:39:00,66.9,46.0,29.35,NNW,333,0.0,0.0,47,0.00,,---,0.12,VWS V13.01,2013-04-01 02:39:00,
2013-03-31 21:44:00,66.7,45.9,29.35,NNW,333,0.0,0.0,47,0.00,,---,0.12,VWS V13.01,2013-04-01 02:44:00,
2013-03-31 21:49:00,66.6,45.7,29.35,North,353,0.0,0.0,47,0.00,,---,0.12,VWS V13.01,2013-04-01 02:49:00,
2013-03-31 21:54:00,66.4,45.6,29.38,North,353,0.0,0.0,47,0.00,,---,0.12,VWS V13.01,2013-04-01 02:54:00,